GFSSW_sfc_temp_000.txt.gz
Temp
61 61 60 60 60 60 60 60 60 61 61 61 61 61 61 61 62 79 77 88 90 72 73 92 92 93 95 89 93 93 75 71 75 79 82 91 88 94 97 89 91 93 91 92 93
61 60 60 60 60 60 60 60 60 60 61 61 61 61 61 61 72 79 86 81 75 74 87 89 86 91 86 87 88 83 74 75 85 87 85 89 88 89 88 88 88 89 93 92 92
61 61 60 60 60 60 59 59 60 60 60 60 60 60 60 63 75 87 75 76 74 77 94 95 93 89 83 87 86 84 76 83 85 89 90 87 87 90 87 83 88 86 90 90 88
61 61 61 60 60 59 59 59 60 60 60 60 60 60 61 74 69 87 76 75 75 91 91 90 89 83 81 79 86 79 85 86 88 90 88 85 89 86 88 88 94 93 93 91 87
60 61 61 60 60 59 59 59 59 59 59 59 59 60 70 74 76 95 76 77 85 88 86 85 84 84 79 83 84 81 84 88 89 88 87 89 86 86 87 93 95 95 93 90 88
59 60 60 60 59 59 59 58 58 58 58 59 60 59 68 63 91 95 95 88 90 86 86 87 85 89 84 83 82 86 86 86 87 86 88 85 86 87 88 93 91 91 90 90 89
58 58 59 59 59 59 59 58 57 58 59 60 60 66 67 71 91 97 97 93 92 88 84 89 90 86 88 81 89 86 79 83 85 86 85 88 80 81 89 91 89 89 89 89 89
58 58 58 59 59 59 59 59 58 59 59 60 61 66 62 85 88 85 90 92 95 96 93 94 94 87 84 88 84 79 79 72 82 86 87 85 71 84 90 89 86 88 89 88 87
58 57 58 58 59 59 58 58 58 59 61 62 62 65 66 83 77 86 93 87 92 93 93 95 91 83 82 75 72 75 67 71 76 87 85 83 75 84 90 88 86 87 88 88 88
57 57 57 57 58 58 57 57 60 61 65 71 73 66 73 73 83 88 93 92 86 86 84 83 82 75 76 72 60 66 69 73 72 81 85 80 78 84 87 87 85 86 87 87 86
57 57 56 57 57 57 58 66 66 61 65 66 69 71 81 87 90 87 92 87 86 82 71 77 70 66 71 74 75 75 73 73 79 85 79 77 78 82 86 86 85 85 86 85 84
57 56 57 56 57 57 59 57 67 70 60 70 73 76 81 87 78 84 93 79 76 69 75 72 65 74 78 78 75 74 72 72 79 84 81 79 77 82 84 84 85 85 85 85 83
56 56 56 56 56 57 59 61 72 75 59 67 74 71 75 82 75 79 85 81 75 69 71 67 72 79 77 75 73 73 71 72 73 80 82 78 73 77 83 86 88 88 88 87 81
56 56 55 55 53 64 63 73 76 75 51 61 69 75 78 79 72 87 90 82 76 70 72 73 79 77 75 74 77 68 79 78 76 72 64 78 60 73 79 80 84 86 85 84 82
55 56 55 54 58 58 65 73 77 70 38 74 74 89 83 73 79 78 89 83 72 73 74 70 75 74 74 76 80 75 82 79 77 71 69 69 63 70 79 76 81 84 86 84 83
55 55 55 58 58 64 68 71 68 47 39 67 83 75 73 74 75 84 79 85 83 75 77 75 85 82 80 84 83 84 79 77 76 71 58 67 65 65 72 77 80 85 87 84 84
55 55 55 62 57 67 68 60 44 39 65 66 73 75 72 70 71 74 71 70 69 62 64 73 75 83 85 78 83 80 72 60 54 55 54 70 65 68 79 82 83 83 85 84 84
54 54 56 62 66 64 57 45 33 51 54 76 77 74 68 73 71 71 71 67 74 71 67 64 62 76 84 80 76 75 71 61 48 51 58 71 62 70 82 86 86 87 86 84 82
53 57 54 61 65 61 45 32 40 50 64 62 67 63 68 72 74 70 70 70 74 75 64 66 66 82 84 85 83 74 68 76 65 68 62 67 71 78 82 82 84 84 83 80 80
53 51 55 65 64 51 38 35 48 59 61 61 53 64 58 69 69 69 69 75 73 78 80 73 65 79 82 86 84 78 81 64 66 51 48 61 65 67 73 77 81 81 80 79 79
51 41 58 67 60 42 33 40 49 58 61 57 56 56 59 58 67 70 69 76 79 79 79 77 71 73 80 76 73 74 72 72 70 66 54 52 61 80 77 79 78 80 81 79 78
47 36 62 64 39 37 35 46 50 53 58 56 58 58 56 60 58 60 70 75 84 82 73 77 72 66 72 82 84 79 74 72 63 59 65 64 64 82 81 83 83 81 81 80 80
42 47 59 49 34 34 46 47 51 52 52 53 53 56 59 56 52 63 68 83 85 80 75 76 67 62 66 75 79 73 76 76 72 69 62 59 63 82 83 83 84 81 81 80 80
45 38 47 47 47 43 42 44 44 54 54 55 50 54 50 51 60 58 65 77 85 84 75 75 69 64 61 68 73 68 73 76 71 63 64 66 70 76 78 80 82 82 81 81 81
47 46 50 40 41 42 41 43 42 40 53 56 51 51 50 48 53 58 57 56 66 79 76 73 63 70 73 76 76 74 72 73 71 71 65 68 71 77 79 81 83 84 83 82 81
41 43 50 47 48 44 41 43 45 48 50 47 45 52 52 48 51 48 53 55 55 59 75 74 63 70 69 75 77 72 74 74 75 74 72 73 72 83 86 86 85 83 83 83 82
54 53 46 44 44 41 42 45 45 49 53 55 52 50 48 50 58 60 61 61 61 57 58 70 68 64 61 72 73 65 73 74 74 78 76 69 75 83 83 84 85 82 83 84 84

GFSSW_sfc_temp_003.txt.gz
Temp
61 61 61 60 60 60 60 60 60 60 61 61 61 61 61 61 61 66 66 78 79 74 73 83 81 83 83 77 81 81 61 60 64 68 72 79 77 85 87 82 84 86 83 82 82
61 61 61 60 60 60 60 60 60 60 60 60 61 60 60 60 60 66 78 78 78 74 81 80 77 80 75 76 78 72 64 66 75 77 75 77 77 79 81 80 81 83 83 84 83
61 61 61 60 60 60 59 60 60 60 60 60 60 60 60 60 60 73 76 75 77 75 87 86 84 80 72 77 77 75 66 75 77 82 83 79 77 82 80 76 80 78 78 79 78
60 60 61 60 60 60 59 60 60 60 60 60 60 60 60 59 56 77 76 75 75 81 85 82 80 73 70 69 78 70 76 78 80 83 82 76 80 79 81 81 86 86 82 79 76
59 59 60 60 60 60 59 59 60 60 59 59 59 60 57 59 65 84 76 75 78 81 81 78 74 73 68 73 75 72 76 80 82 83 78 80 77 78 81 84 88 88 84 76 74
58 58 59 59 59 59 59 59 58 58 59 59 60 60 55 52 79 87 87 81 83 79 80 79 75 78 72 73 72 77 78 79 81 80 78 76 78 81 82 85 85 84 81 80 77
57 57 58 58 58 59 58 58 57 58 59 60 61 61 56 59 81 84 82 77 83 82 77 82 82 77 76 71 78 77 71 76 78 79 75 81 73 75 80 83 81 80 80 79 78
57 57 57 57 58 58 58 58 58 59 60 60 61 57 50 75 78 76 80 79 84 88 84 85 85 77 73 75 75 70 71 63 72 77 80 76 65 76 81 79 77 80 80 79 76
57 56 57 57 57 58 57 57 58 59 60 61 55 52 52 77 71 79 82 78 83 86 84 89 80 73 72 66 62 66 57 60 67 78 78 74 69 78 80 80 76 76 76 78 75
57 57 56 56 57 57 56 56 58 59 61 64 64 53 63 65 77 79 82 83 79 80 78 76 69 65 66 62 51 56 58 65 65 73 76 73 71 74 77 78 75 74 75 76 72
57 57 56 56 56 56 54 54 52 49 55 54 57 60 72 76 84 79 83 78 78 74 64 70 58 56 63 67 68 66 63 63 70 77 74 69 71 72 75 75 72 73 72 73 70
57 57 56 56 56 55 51 48 54 56 47 61 63 65 73 78 68 78 84 71 68 62 68 63 57 67 71 71 68 66 63 62 69 76 74 71 69 72 73 73 73 73 72 70 66
56 56 56 56 55 51 49 52 62 60 47 57 65 64 64 72 66 71 80 74 67 62 64 59 64 72 70 67 65 65 62 62 63 71 74 67 61 66 73 76 77 76 73 70 68
55 55 55 55 49 55 56 63 66 62 39 51 59 64 70 69 63 78 82 76 68 62 65 62 71 69 66 65 68 60 71 70 68 64 53 66 46 60 67 69 73 73 68 68 69
55 55 55 54 47 49 57 62 66 59 24 61 63 77 71 63 71 70 81 77 66 66 66 60 66 66 65 66 71 66 74 71 69 64 57 58 50 55 66 65 70 69 69 69 70
55 55 55 52 48 53 60 61 57 37 26 56 70 65 63 64 68 76 72 78 77 68 69 66 74 71 69 75 75 77 71 69 67 59 44 55 53 53 59 66 68 72 72 70 68
55 55 53 57 48 61 61 52 34 29 55 58 63 65 63 60 62 65 64 63 60 55 55 64 65 72 76 69 74 73 61 48 39 40 39 60 54 57 66 70 72 70 68 68 69
54 53 53 56 57 58 53 38 26 43 44 55 58 62 59 64 61 62 61 58 65 63 55 53 51 67 75 70 66 66 62 46 37 38 47 62 52 61 70 73 74 73 70 69 67
53 51 50 55 58 56 42 30 33 42 51 53 53 51 55 65 64 61 60 59 64 66 54 54 55 73 75 76 74 66 58 64 53 52 47 54 62 66 70 71 72 70 69 65 64
48 48 50 58 58 48 36 32 39 50 54 54 43 51 45 52 54 58 59 66 64 69 70 60 52 69 74 77 76 71 69 55 49 39 35 50 53 54 62 66 69 67 65 64 64
46 42 53 59 53 41 31 35 44 52 53 48 45 44 46 47 52 52 56 67 71 69 71 67 56 60 71 66 65 66 59 57 55 51 40 37 47 63 64 66 67 67 68 66 67
45 36 55 55 38 36 33 40 47 47 52 50 50 49 46 44 44 46 52 61 76 73 64 68 55 53 60 74 76 67 62 58 53 46 51 48 49 68 67 69 68 69 69 66 67
40 41 52 49 32 33 40 42 46 46 48 47 46 51 51 42 37 46 55 66 65 64 67 68 59 45 55 61 72 66 68 62 57 54 49 46 49 69 71 70 72 68 69 69 67
40 33 41 44 42 37 37 38 39 51 49 49 47 49 46 44 48 45 50 59 60 65 62 71 58 56 49 56 66 61 66 67 58 49 51 56 58 62 67 68 69 69 69 69 69
41 38 44 33 36 39 40 39 37 38 47 50 41 45 44 38 39 42 46 50 57 61 57 67 58 58 64 67 68 68 67 67 62 59 56 57 59 65 67 68 69 70 70 71 70
38 37 42 38 42 40 39 38 39 42 45 42 41 42 45 42 39 35 41 42 45 52 49 55 57 62 58 68 67 66 69 69 68 64 62 63 62 69 71 73 70 72 72 72 72
45 46 41 39 38 36 36 40 41 44 48 50 50 48 45 47 46 48 48 49 49 47 46 47 50 56 52 63 64 58 66 68 69 68 66 60 64 70 69 73 71 72 74 74 74

GFSSW_sfc_temp_006.txt.gz
Temp
61 61 61 61 60 60 60 60 60 60 60 61 61 61 61 61 60 62 63 74 75 72 73 78 78 79 76 71 74 73 55 53 57 62 66 76 68 80 83 78 81 82 77 80 80
60 61 61 60 60 60 60 60 60 60 60 60 60 60 60 60 56 59 74 75 75 73 77 76 73 75 67 69 70 64 54 61 69 69 67 74 71 77 77 76 77 78 77 78 79
60 60 60 60 60 60 60 60 60 60 60 60 60 60 60 59 58 66 76 75 75 74 81 80 79 74 64 68 69 65 62 70 71 75 76 75 76 80 76 72 76 74 75 76 74
59 59 59 59 60 60 60 60 60 60 60 60 60 60 60 56 52 74 76 74 74 77 78 76 72 66 62 63 73 61 71 73 74 77 76 74 80 78 77 77 81 81 79 75 72
58 58 59 59 59 59 59 59 60 60 59 59 59 60 55 54 60 80 77 76 77 77 74 73 67 68 62 66 68 65 70 74 77 77 77 79 76 77 76 81 82 81 78 75 73
57 57 57 58 58 58 58 58 58 58 58 59 60 60 51 44 72 79 81 79 80 74 75 73 71 73 64 68 65 70 71 73 75 75 77 75 76 74 78 81 80 78 75 75 72
57 57 57 57 57 58 57 57 57 58 59 60 60 60 49 51 73 76 71 71 75 78 74 77 78 71 68 64 72 71 66 71 72 73 73 77 70 71 78 79 76 76 75 75 75
57 57 57 57 57 57 57 57 57 58 59 60 61 57 46 65 67 67 73 75 77 77 77 81 80 71 64 67 68 62 59 55 68 72 75 70 62 74 78 75 74 75 76 75 72
57 57 57 57 57 57 57 56 57 58 59 60 56 51 44 67 62 71 74 72 78 80 80 84 74 67 65 61 56 56 53 56 61 71 72 69 66 75 79 76 74 73 73 74 74
57 57 56 56 57 56 55 55 56 57 58 61 60 47 54 60 71 75 74 75 73 72 72 71 65 59 57 53 47 53 53 57 60 69 69 67 66 74 78 76 74 72 72 71 70
57 56 56 56 56 55 51 48 48 48 48 48 50 53 68 71 75 75 76 71 70 67 59 64 57 53 59 63 64 60 57 56 65 71 65 65 67 72 74 71 73 69 69 69 67
56 56 56 56 56 55 48 42 49 52 41 55 55 57 65 69 61 70 78 64 61 55 64 58 55 64 68 67 62 60 58 58 64 70 65 65 65 72 72 69 69 70 69 66 61
55 55 56 56 55 48 45 50 57 58 42 50 57 57 58 64 58 62 73 68 62 58 60 56 62 70 66 62 60 60 58 59 59 66 68 63 60 62 70 69 71 71 69 64 64
55 55 55 55 47 46 48 57 58 60 33 44 52 58 61 62 57 69 74 70 64 58 62 59 68 66 62 60 62 55 66 66 63 59 49 62 46 55 65 66 68 69 67 63 66
55 55 55 54 44 42 52 55 58 52 21 54 57 69 64 57 64 65 75 69 61 61 62 57 62 61 59 61 66 60 68 64 63 58 54 58 48 54 61 62 67 68 64 62 66
54 55 54 52 50 49 53 53 50 33 23 46 62 57 55 58 64 68 67 71 71 64 63 62 69 66 64 69 68 70 64 62 61 56 46 56 52 56 56 63 65 65 65 64 62
54 55 53 55 44 50 52 50 33 26 49 48 49 53 54 53 56 62 59 57 53 51 51 60 60 67 70 62 68 64 55 42 35 40 42 55 50 55 61 65 69 68 65 62 62
53 53 50 53 49 51 46 39 27 39 41 52 50 52 50 55 55 57 56 54 60 60 53 50 47 61 69 64 60 60 57 46 36 36 44 57 49 58 66 69 70 69 64 62 60
52 45 44 47 52 47 41 29 29 39 48 44 46 44 44 49 49 54 54 55 60 60 51 50 51 66 69 70 66 59 54 63 49 48 44 48 56 63 66 65 64 63 64 60 60
47 41 42 51 50 45 36 32 35 46 47 46 37 43 35 41 40 42 50 60 59 64 62 54 47 63 67 69 68 63 64 52 45 39 36 45 49 50 58 60 62 61 60 59 59
41 37 46 53 49 41 29 32 40 48 49 43 40 39 40 38 40 41 46 56 59 63 65 59 51 53 64 59 59 59 56 54 53 48 40 35 44 57 63 61 62 62 63 61 61
39 32 47 50 37 36 32 37 44 45 48 45 46 45 42 38 38 39 43 51 55 53 52 62 50 48 54 62 69 65 60 56 52 44 46 45 49 62 64 63 67 63 65 63 64
35 35 46 48 28 32 37 40 43 42 43 44 43 46 48 42 36 42 46 54 55 51 49 57 53 43 46 53 61 60 62 58 52 48 46 45 46 66 63 65 67 63 63 63 61
35 30 38 39 41 36 34 35 36 47 44 47 44 46 44 42 46 41 42 50 51 53 55 52 51 52 45 52 57 54 62 62 54 45 46 53 53 60 59 64 63 64 64 64 65
35 32 38 28 31 34 34 37 35 35 44 45 40 42 41 37 41 40 45 43 49 53 50 45 48 56 59 60 60 61 64 62 61 58 54 54 56 61 61 65 66 65 64 65 65
37 34 39 36 35 33 36 34 36 39 40 40 38 44 44 38 40 36 42 40 41 47 44 44 38 56 54 62 62 59 64 65 65 59 58 60 57 65 70 68 64 65 66 66 67
41 41 39 37 32 31 32 37 35 41 41 45 44 42 39 45 48 48 47 47 46 42 40 39 39 45 48 59 59 52 61 64 64 64 62 57 60 64 64 67 67 65 68 69 69

GFSSW_sfc_temp_012.txt.gz
Temp
60 60 60 60 60 60 60 60 60 60 60 60 61 60 60 60 59 58 59 72 72 71 74 73 74 75 73 66 66 64 52 48 53 54 60 62 61 69 75 72 72 77 74 76 72
59 59 59 59 60 59 59 59 60 60 60 60 60 60 60 60 52 53 71 73 72 73 72 71 69 71 63 63 64 60 50 54 65 64 62 62 63 67 68 69 69 73 76 76 71
59 59 59 58 58 58 59 59 59 59 60 60 60 60 60 58 51 61 74 73 75 74 75 75 75 69 59 60 62 59 57 66 67 70 63 65 66 68 67 67 72 69 75 72 69
58 59 59 59 58 58 58 58 59 59 59 59 59 59 60 52 50 67 75 73 73 75 73 72 69 62 56 57 64 53 62 69 70 71 65 67 68 69 70 71 77 76 76 71 67
58 58 58 58 58 58 58 58 58 58 58 58 59 59 57 46 51 73 74 75 72 71 70 70 65 62 55 57 63 57 63 66 67 66 68 69 66 67 70 77 78 78 74 71 67
57 57 58 58 58 58 58 57 57 57 57 58 59 59 52 40 64 69 66 70 72 67 67 67 65 68 60 60 58 61 63 65 65 68 71 67 67 69 72 77 75 75 72 71 68
57 57 57 57 57 57 57 57 56 57 57 58 59 58 49 46 63 65 63 60 66 71 67 71 72 68 62 56 62 61 56 60 63 66 66 69 61 64 74 73 70 72 73 71 68
57 56 57 57 57 57 57 57 56 57 58 58 59 56 44 60 62 59 60 60 66 68 68 74 75 65 58 59 59 55 52 47 61 65 66 65 55 68 73 69 69 71 72 71 68
57 56 56 56 57 57 56 56 57 58 58 58 54 51 42 61 55 60 62 58 68 66 67 76 71 60 59 55 51 48 49 50 56 66 64 62 57 69 67 67 67 69 69 70 69
56 56 56 56 56 56 55 56 56 55 56 59 56 46 48 52 60 64 62 62 64 62 61 61 58 52 50 49 43 45 45 50 53 62 62 58 57 66 70 67 65 66 67 67 67
56 56 56 56 56 55 54 45 45 43 47 43 45 46 52 62 65 63 64 59 61 58 51 55 51 47 54 56 55 54 52 52 56 64 60 56 55 61 67 64 63 66 67 67 68
56 56 56 56 56 55 51 40 48 49 39 50 49 50 55 58 49 56 67 55 53 50 56 52 48 58 60 58 56 54 51 51 56 63 59 56 56 62 65 66 64 68 69 68 61
55 55 55 55 55 46 42 45 57 55 38 45 51 49 50 53 47 51 60 58 52 49 54 51 56 63 59 56 53 52 51 52 51 60 58 54 53 57 63 64 65 65 65 63 62
54 54 55 54 47 43 43 51 54 55 34 38 44 49 53 53 47 61 65 59 54 49 54 53 62 59 55 53 56 48 58 58 55 51 42 53 37 52 57 62 62 65 64 64 62
54 54 54 54 47 47 47 48 49 48 19 47 49 61 55 49 53 54 63 60 52 51 53 49 55 55 53 55 60 53 63 58 56 49 44 47 41 50 53 55 61 64 65 63 60
54 54 54 51 47 47 48 47 45 31 22 42 51 48 48 49 51 57 55 61 61 53 54 54 61 62 57 63 62 64 57 53 49 44 37 47 45 43 50 58 61 62 63 60 55
54 54 52 53 42 45 45 41 27 21 44 38 40 47 49 42 47 50 49 47 46 42 43 50 53 57 63 54 58 56 47 34 29 29 32 50 44 51 56 60 63 64 63 56 53
53 52 51 52 45 47 41 34 22 34 36 45 43 46 42 43 41 42 45 42 51 48 45 41 38 54 60 56 52 55 49 36 30 31 39 49 41 50 60 64 63 65 62 55 52
51 43 42 44 47 47 38 26 26 33 40 38 40 38 39 44 42 38 39 41 47 52 42 41 44 57 62 64 63 52 45 52 42 44 38 41 50 58 61 64 61 59 56 53 52
46 44 40 47 47 45 33 28 32 42 43 41 31 38 33 37 38 36 37 45 43 48 51 47 40 54 59 61 64 56 57 44 43 33 30 40 43 48 54 60 59 56 55 52 52
38 34 44 49 49 40 26 29 36 44 44 38 35 34 37 36 38 35 35 41 41 44 48 44 43 46 54 51 50 48 46 44 47 39 33 32 41 53 58 61 60 58 56 52 53
38 28 45 49 35 32 27 36 42 41 45 41 40 38 37 40 36 36 36 38 41 45 38 42 37 39 48 55 62 58 51 47 44 39 41 41 42 58 59 58 59 60 58 54 54
36 35 43 46 28 31 35 36 40 39 40 39 38 42 42 39 33 39 41 45 45 43 40 42 35 34 38 47 51 53 56 55 46 42 43 40 42 60 58 58 59 58 57 55 54
37 28 33 38 37 34 32 31 32 43 41 41 39 40 38 38 42 37 40 47 48 45 48 45 35 34 38 42 48 45 53 56 49 38 42 47 48 56 58 58 57 57 55 54 55
33 29 34 31 31 34 34 31 31 33 38 39 36 37 35 33 35 35 39 42 46 46 42 37 30 37 40 45 48 50 52 54 50 53 47 49 51 54 60 58 57 56 54 56 56
32 35 37 34 37 35 32 29 32 35 36 35 33 38 37 34 35 33 38 40 40 42 38 39 30 36 36 47 49 48 52 53 55 55 55 51 53 60 60 58 58 58 58 58 58
43 41 38 36 33 32 32 33 34 36 39 40 38 36 34 40 42 43 44 45 45 41 39 35 32 32 29 40 45 42 51 53 52 57 57 50 61 56 57 59 59 58 60 60 61

GFSSW_sfc_temp_015.txt.gz
Temp
60 59 59 59 59 59 60 60 60 60 60 61 61 61 61 61 60 64 67 73 73 71 72 77 77 80 81 77 78 74 68 65 66 66 74 79 78 80 84 82 84 86 86 90 88
60 59 59 59 59 59 58 59 60 60 60 60 60 60 60 60 58 59 72 72 73 73 79 77 73 76 75 75 76 72 66 67 74 77 75 77 76 77 77 79 80 82 87 88 87
59 59 59 59 60 59 59 58 58 59 60 60 59 60 60 61 59 68 74 71 73 74 84 82 80 76 72 72 73 72 66 73 75 78 77 76 76 81 76 74 81 79 83 87 88
59 59 59 59 59 59 59 59 59 59 58 59 59 59 60 58 57 73 72 73 72 75 77 77 76 70 70 67 74 67 73 75 77 79 76 74 78 73 77 78 84 84 85 85 84
58 58 58 58 58 58 58 58 58 58 58 58 58 59 58 50 58 76 71 72 79 73 72 73 71 72 67 71 72 66 72 75 76 76 76 76 72 72 75 80 85 85 83 83 84
57 57 57 57 58 58 57 57 57 57 57 58 58 59 52 41 67 70 69 69 75 74 71 73 73 75 73 71 68 76 72 73 76 75 75 72 73 75 76 82 82 82 82 84 85
57 57 57 57 57 58 57 57 56 57 58 59 59 58 50 49 66 70 68 65 67 71 70 75 76 71 72 68 74 72 66 70 70 72 71 74 68 70 79 82 79 80 82 83 84
57 56 57 57 57 57 57 57 56 57 58 59 59 57 46 64 68 64 65 63 67 70 68 76 78 73 69 72 67 65 66 61 72 72 73 71 64 77 82 79 78 79 80 80 82
57 56 56 57 57 57 56 56 57 58 59 59 54 51 45 64 59 65 65 61 69 68 70 75 74 68 67 62 60 61 57 57 64 71 71 70 68 77 80 77 75 77 79 80 82
57 56 56 56 57 56 55 55 57 57 59 60 59 47 54 55 62 66 68 64 63 65 64 66 67 62 63 60 50 55 54 59 59 69 70 69 67 74 75 75 74 76 78 79 79
57 56 56 56 56 55 54 53 54 51 53 48 50 50 55 63 67 64 66 60 60 63 57 62 57 55 59 61 63 63 61 60 66 70 67 67 66 68 74 75 75 75 76 77 78
56 56 56 56 56 54 54 49 49 50 41 53 52 53 57 61 51 60 67 57 54 53 61 56 53 63 66 64 60 60 58 59 65 68 66 66 65 70 72 73 76 76 76 77 79
55 55 55 55 55 52 49 50 57 56 41 48 53 52 53 56 48 52 62 59 54 53 57 56 61 64 62 61 57 58 56 58 59 65 67 64 61 66 74 74 76 77 78 78 77
55 55 55 54 51 51 49 56 56 55 36 43 47 53 55 56 48 60 64 61 57 53 57 58 67 62 60 58 61 53 63 62 60 57 53 64 51 62 68 69 73 76 77 78 79
54 55 55 54 49 48 53 56 57 52 25 49 50 64 61 53 56 59 64 60 53 56 57 54 59 59 57 59 63 58 65 61 60 57 57 58 52 60 66 65 70 75 79 79 76
54 54 54 52 50 54 56 55 52 34 24 43 52 50 52 53 52 58 57 62 63 56 59 60 68 65 63 65 64 66 63 62 60 58 46 55 54 55 62 66 72 76 79 75 70
54 54 51 54 47 53 54 50 32 26 46 40 41 48 49 46 45 48 47 48 48 44 46 55 58 64 67 61 65 63 58 47 44 44 44 59 54 54 68 72 72 75 79 73 68
52 52 51 53 53 54 49 39 23 36 38 46 44 47 44 47 42 43 44 45 51 53 51 47 45 58 66 63 59 58 57 50 39 41 50 56 49 56 71 75 75 77 77 72 68
51 51 50 52 52 52 41 29 33 37 41 39 43 39 41 44 44 42 41 38 47 53 44 48 50 63 65 68 66 58 54 63 54 53 52 54 57 63 70 71 73 74 70 68 67
48 46 48 52 52 47 37 32 36 43 44 43 34 40 35 39 39 40 37 37 38 46 50 49 46 60 63 68 68 64 66 51 55 43 41 51 52 58 65 69 74 72 69 66 66
45 42 52 53 48 40 32 34 39 46 46 39 37 36 38 37 40 36 36 40 38 42 49 50 50 54 61 58 58 59 57 58 59 55 46 46 54 67 69 73 75 76 71 68 68
44 38 51 52 37 35 34 39 42 43 47 43 43 39 38 39 37 37 36 39 44 42 37 46 44 48 55 65 68 65 60 59 52 46 55 52 55 69 70 73 73 74 70 69 70
38 38 50 49 31 33 40 39 41 41 42 41 39 43 45 39 34 40 41 48 46 42 37 42 44 45 49 56 63 59 62 62 60 58 51 48 55 69 70 71 72 72 70 68 68
41 34 41 43 41 35 33 36 36 45 43 41 41 44 42 40 44 39 39 45 46 46 46 45 42 41 46 50 57 54 58 61 59 53 54 54 61 68 72 73 72 70 69 70 69
40 38 39 32 37 36 37 36 34 35 42 42 37 35 36 35 38 36 36 39 42 45 45 41 36 42 45 47 50 55 57 59 56 59 54 57 59 66 72 73 73 73 69 68 69
38 38 41 36 39 36 38 35 35 38 38 38 35 41 40 35 37 34 38 37 37 44 43 44 38 42 45 51 53 51 56 59 60 60 59 60 61 72 74 76 71 71 69 70 70
45 44 39 38 36 33 35 35 35 36 41 43 41 37 38 42 46 46 46 46 45 43 42 40 40 39 42 47 49 46 55 57 59 62 61 57 65 72 72 73 74 72 71 72 72

GFSSW_sfc_temp_021.txt.gz
Temp
60 60 60 60 60 60 60 60 60 60 60 60 60 60 60 60 61 76 75 85 86 72 72 91 90 90 91 88 91 92 78 74 79 81 83 94 92 98 98 93 96 98 98 101 104
60 60 60 60 60 60 59 60 60 60 60 60 60 60 60 60 68 76 84 74 73 73 86 88 84 88 85 85 88 83 76 78 88 90 88 92 92 94 93 91 92 94 100 103 104
59 59 59 59 59 59 59 59 59 60 60 60 60 59 59 63 71 83 72 74 73 76 89 92 92 88 82 87 86 84 76 85 88 92 93 91 91 96 91 87 92 91 95 99 99
59 59 59 59 59 59 59 59 59 60 59 59 59 60 60 68 66 80 73 73 73 82 82 85 86 83 81 80 88 80 86 87 89 92 90 89 93 89 91 91 97 97 98 97 96
59 59 58 58 58 58 58 58 59 59 59 59 59 60 65 67 71 89 76 78 86 85 79 80 81 82 79 83 85 83 86 89 91 91 91 92 89 88 90 96 98 98 97 95 96
58 58 58 58 58 58 58 58 58 58 58 58 59 59 62 56 84 87 86 85 85 86 84 84 84 89 84 83 83 86 87 88 90 90 91 87 87 89 90 94 94 94 94 96 97
57 57 57 58 58 58 58 57 57 57 58 59 60 64 60 63 83 86 84 83 86 84 80 88 89 85 87 81 89 86 80 83 85 87 86 90 81 82 91 94 91 92 93 95 97
57 57 57 57 57 58 58 57 57 58 58 59 60 64 53 78 85 82 83 82 85 85 82 85 90 85 84 87 84 79 80 71 82 85 87 85 72 84 91 90 89 93 94 95 95
57 57 57 57 57 57 57 57 57 58 59 61 62 62 58 76 71 78 80 75 80 82 83 84 83 78 80 74 71 75 66 70 75 86 84 82 76 85 90 88 87 89 92 92 93
57 56 56 57 57 57 56 55 62 60 63 71 70 59 67 66 76 76 80 79 73 75 75 73 73 70 73 71 59 65 67 71 71 80 82 79 78 85 89 88 86 89 92 91 91
57 56 56 56 56 56 58 72 67 63 67 63 65 62 69 76 79 75 78 75 73 69 63 70 64 61 67 71 74 73 72 71 76 83 78 77 78 83 86 86 86 88 89 89 89
56 56 56 56 56 56 61 64 64 64 53 66 68 69 72 74 64 70 78 66 65 59 66 66 59 69 75 75 72 71 69 70 77 82 78 77 76 82 85 85 86 86 88 89 90
55 55 56 56 56 59 67 66 73 71 50 59 68 69 70 72 64 65 72 68 62 61 63 60 66 73 72 71 69 70 67 69 70 77 80 76 72 76 82 85 86 87 89 89 89
55 55 55 55 56 68 65 70 74 70 44 55 61 66 69 69 60 73 75 69 64 59 64 64 71 71 69 68 72 64 76 73 71 69 62 76 61 71 78 80 83 85 88 89 91
55 55 55 54 61 63 67 73 73 62 31 58 61 75 70 64 64 66 76 69 59 62 63 60 65 66 66 69 74 70 78 74 73 67 67 68 64 69 77 75 79 84 87 89 91
55 55 54 65 63 67 73 71 65 39 32 52 60 57 60 63 63 67 66 71 69 62 64 64 74 72 69 74 76 78 75 74 73 69 57 65 64 66 72 76 80 85 88 90 92
54 54 57 67 62 71 69 59 36 33 52 46 47 53 51 56 59 60 58 56 54 49 50 59 63 71 75 68 75 75 67 57 53 54 54 69 65 67 77 82 83 84 87 91 92
53 52 56 67 68 67 62 45 31 45 47 56 54 55 51 56 57 58 56 53 59 55 50 51 48 62 72 69 67 68 67 59 46 52 58 70 61 70 83 85 87 88 89 89 88
51 67 64 68 69 63 48 36 41 46 52 49 51 44 47 54 56 53 53 52 52 50 37 47 53 69 70 73 72 67 64 73 64 69 64 69 72 79 83 83 84 86 87 87 86
61 66 64 69 67 61 46 40 49 55 54 52 41 45 41 48 47 49 50 48 47 53 51 47 47 65 70 73 73 72 77 62 66 52 52 64 67 68 76 80 83 84 85 86 84
59 58 66 70 66 54 39 47 53 57 56 48 44 44 46 44 47 47 46 49 49 52 53 52 44 55 66 64 64 67 67 68 69 68 58 56 65 80 79 81 82 86 87 84 83
62 55 68 72 44 46 44 50 50 55 58 54 51 47 45 46 44 46 44 48 52 52 46 56 47 47 58 71 74 72 69 68 62 59 67 67 65 83 83 86 86 88 87 86 86
58 62 68 64 39 41 50 51 55 52 53 52 48 50 52 47 41 49 49 50 48 46 42 49 48 44 46 60 69 67 71 72 69 70 63 63 66 83 84 83 86 86 85 85 85
60 52 62 62 53 44 43 46 46 54 51 53 49 51 46 45 51 43 47 46 50 48 48 44 47 48 37 53 66 62 68 72 69 63 65 68 70 77 80 81 84 84 85 85 85
62 55 53 46 47 46 44 45 43 40 48 53 49 49 46 43 47 45 45 50 46 48 46 42 44 52 48 49 56 67 68 71 67 70 66 70 71 76 80 81 82 84 84 84 85
52 51 55 49 49 45 46 44 45 46 43 45 44 49 51 45 48 44 46 48 42 46 43 49 43 51 42 47 55 64 68 71 71 71 72 75 72 83 84 87 85 85 85 84 85
59 57 45 46 49 44 44 46 43 46 48 49 48 48 48 51 55 56 57 57 54 50 48 44 47 42 36 49 54 55 66 70 71 74 74 69 75 83 81 81 83 84 84 85 87

GFSSW_sfc_temp_024.txt.gz
Temp
60 60 60 60 60 60 60 60 60 60 60 61 61 60 60 60 60 70 67 80 82 73 71 90 88 88 90 85 88 88 71 68 72 76 81 91 89 96 99 94 95 97 96 98 103
60 60 60 60 60 60 60 60 60 60 60 60 60 60 60 60 63 69 80 77 76 74 84 84 83 86 82 83 84 79 71 73 82 85 84 88 89 92 90 90 90 92 98 102 103
60 60 60 60 60 59 59 59 60 60 60 60 60 60 60 62 66 78 73 74 74 77 87 89 89 86 79 83 81 80 73 80 84 87 89 87 88 92 88 85 90 89 94 99 99
59 59 59 59 59 59 59 59 59 60 60 59 59 60 60 63 63 80 75 74 75 85 84 82 81 79 77 75 82 74 81 83 85 88 87 85 90 88 90 90 96 96 97 97 96
58 58 58 58 58 58 58 58 59 59 59 59 59 60 61 63 66 87 75 77 85 82 79 76 74 76 74 79 81 78 80 85 88 88 88 90 87 87 88 94 97 98 97 96 95
58 58 58 58 58 58 58 58 57 58 58 59 59 60 58 51 80 87 88 87 86 84 82 81 77 80 78 78 78 82 82 84 87 88 89 86 87 88 90 94 94 95 94 95 95
58 58 58 58 58 58 58 57 57 57 58 59 60 62 57 58 79 82 82 82 85 84 80 85 86 79 79 75 84 83 77 81 84 85 84 88 80 82 90 92 91 91 93 94 94
57 57 57 57 57 58 58 57 57 58 59 60 60 61 53 76 81 79 81 78 82 83 82 85 85 80 79 82 78 75 75 69 80 83 85 83 69 83 90 89 88 90 91 92 93
57 57 57 57 57 57 57 56 57 59 60 61 60 60 56 77 72 77 79 74 80 82 83 84 80 73 76 70 67 71 64 67 72 83 82 80 73 84 90 88 86 87 88 90 91
57 56 56 56 57 56 56 56 59 61 66 70 68 59 66 65 76 78 82 79 73 74 73 73 71 65 67 67 56 61 63 68 68 78 80 77 76 83 88 88 86 88 88 88 88
57 56 56 56 56 56 57 64 68 63 64 59 64 62 67 76 80 75 80 76 74 69 60 68 61 58 62 67 70 70 68 67 74 81 77 75 76 80 85 86 86 86 86 86 87
56 56 56 56 56 56 59 62 65 67 54 66 66 66 71 74 65 71 79 66 64 57 63 61 57 66 70 70 68 67 66 66 74 79 77 76 75 81 84 84 86 86 85 86 87
55 55 56 55 56 60 66 68 75 73 54 58 65 65 67 72 65 66 72 67 61 58 60 56 62 69 68 66 65 66 65 66 66 74 77 74 70 75 82 85 87 88 88 87 86
55 55 55 55 56 67 66 73 76 71 44 54 61 67 70 70 61 75 76 68 63 56 60 61 67 65 65 63 67 61 72 71 69 66 60 74 58 70 77 79 83 85 86 86 87
54 55 54 54 60 64 68 74 74 64 29 59 58 76 70 64 65 66 74 69 58 59 60 56 61 62 60 65 70 65 74 71 70 66 65 66 61 67 76 74 78 83 85 86 88
54 54 54 65 63 69 74 71 64 36 27 47 53 55 54 57 59 67 66 70 68 61 61 60 69 67 67 70 71 74 70 69 70 68 56 64 62 62 69 74 78 84 87 88 89
54 54 54 65 62 72 71 60 36 28 52 47 51 56 55 55 58 60 58 57 53 44 48 57 59 66 69 64 70 69 64 53 50 52 51 67 63 65 74 80 82 83 86 88 90
53 52 61 71 73 70 62 47 27 41 47 57 55 55 50 56 57 58 56 51 60 57 47 40 42 60 67 64 63 64 63 55 43 48 55 67 58 66 80 85 86 87 88 89 88
52 67 67 71 71 68 52 36 36 47 54 51 53 44 46 49 48 52 54 52 56 52 43 42 46 64 67 69 68 64 58 69 60 63 58 64 69 75 80 82 84 85 86 85 84
57 63 67 72 71 62 45 40 48 57 57 54 43 42 37 46 42 43 47 50 53 57 58 49 40 55 62 69 68 66 72 57 62 48 48 60 64 68 74 77 82 82 82 81 82
58 58 69 73 69 54 39 47 52 59 58 51 47 41 46 43 45 45 45 53 54 55 57 54 46 46 55 56 58 62 61 64 65 63 53 51 61 79 78 81 79 82 84 81 80
61 54 71 72 49 47 45 52 53 53 58 55 54 50 43 45 45 46 45 45 52 54 46 53 46 41 47 62 70 67 63 64 57 54 62 62 63 83 82 84 83 84 84 82 82
56 62 70 67 41 43 50 52 54 52 53 51 49 52 52 45 37 46 45 50 52 49 44 45 43 37 42 54 61 61 65 67 66 65 59 57 62 82 83 83 85 83 83 82 82
56 52 62 61 58 47 47 46 46 54 51 53 51 53 49 43 48 43 41 50 54 54 53 47 41 41 37 40 48 51 63 67 66 58 61 65 66 75 79 81 83 81 81 82 81
59 55 57 47 48 49 48 46 45 45 53 52 47 50 47 42 47 46 49 51 53 52 50 41 35 45 47 44 43 45 53 65 65 66 61 66 68 75 79 81 81 81 82 81 81
53 51 55 48 53 49 47 46 45 48 47 46 44 48 50 45 47 43 49 50 46 49 46 46 36 43 42 48 44 42 54 61 69 69 69 69 71 79 80 83 81 81 81 81 81
58 59 51 47 51 48 45 45 46 48 49 53 51 47 47 51 55 56 57 55 54 50 48 47 42 37 37 49 41 41 55 61 69 73 72 66 74 79 78 79 80 81 83 82 83

GFSSW_sfc_temp_027.txt.gz
Temp
60 60 60 60 60 60 60 60 60 60 60 60 61 60 60 60 60 60 58 70 73 73 73 82 80 81 81 77 79 78 56 54 62 65 71 83 81 88 93 87 87 88 85 90 94
60 60 60 60 60 59 59 59 60 60 60 60 60 60 60 60 55 56 69 74 75 74 76 75 74 79 72 73 75 71 58 61 71 75 75 79 81 85 85 84 82 86 91 94 95
59 59 59 59 59 59 59 59 59 60 60 60 59 59 60 59 54 66 74 73 74 75 80 80 79 77 69 73 72 71 63 71 74 78 80 79 80 86 82 78 83 82 88 92 90
59 59 59 59 59 59 59 59 59 59 59 59 59 59 60 56 50 71 74 73 73 77 77 75 71 66 63 65 74 66 73 74 76 80 79 78 83 80 82 81 89 88 89 88 85
58 59 59 58 58 58 58 58 58 59 59 59 59 59 55 50 52 75 76 76 79 78 74 70 66 63 60 65 72 69 72 76 79 79 80 82 79 80 81 87 91 90 90 87 83
58 58 58 58 58 58 57 57 57 57 58 58 59 59 51 39 67 75 78 77 79 75 73 70 66 69 64 65 65 72 74 75 77 77 79 78 79 81 83 86 86 86 83 84 83
57 57 57 57 57 57 57 57 57 57 58 59 60 59 50 47 68 71 69 68 72 75 73 76 76 70 68 64 71 71 66 71 75 77 75 80 73 75 84 85 84 84 86 87 84
57 57 57 57 57 57 57 57 57 57 59 60 61 55 44 66 67 65 68 67 72 75 74 76 76 68 63 68 68 63 63 57 69 74 77 76 63 76 82 82 80 84 86 86 81
57 56 56 57 57 57 57 56 57 58 60 61 54 50 46 70 64 69 70 67 71 73 74 79 73 63 64 56 53 59 51 56 62 74 74 71 66 77 82 81 80 82 83 85 85
57 56 56 56 56 56 56 56 58 59 61 65 63 50 58 60 72 76 75 73 69 68 67 66 61 56 56 52 44 51 53 58 58 68 71 68 68 75 80 80 79 81 80 78 80
57 56 56 56 56 55 53 51 57 52 54 54 57 56 61 71 75 72 76 73 69 62 51 57 50 47 53 56 58 61 59 58 63 70 68 66 67 72 77 75 76 79 74 78 75
56 56 56 55 55 55 51 50 60 59 48 61 61 61 67 68 59 65 73 61 59 50 56 52 46 57 61 61 59 58 55 56 64 71 68 67 66 73 76 76 79 79 78 74 73
55 55 55 55 55 53 57 63 69 64 45 53 61 60 61 65 58 59 66 62 56 51 52 48 52 62 60 58 56 56 54 56 56 64 68 64 60 66 73 74 76 76 75 75 74
54 54 55 54 53 57 58 67 67 62 35 46 54 60 63 63 55 69 71 64 57 50 53 51 59 59 57 55 59 51 62 62 60 57 49 62 47 61 67 70 74 78 75 74 75
54 54 54 53 50 53 62 66 63 55 23 50 53 67 67 59 61 63 72 65 54 53 53 48 53 54 53 56 62 55 64 62 61 57 55 57 49 59 63 63 65 70 72 72 74
54 54 54 57 52 58 65 63 57 35 24 43 57 56 56 59 59 62 57 62 65 56 56 53 62 58 56 62 64 65 60 59 59 55 43 54 53 55 60 64 67 71 73 76 76
54 54 52 59 51 63 61 52 32 25 49 46 49 53 52 47 53 56 53 50 44 41 41 50 53 59 63 54 60 58 50 39 38 40 40 57 53 57 62 69 72 71 72 74 74
53 52 55 62 63 60 54 42 21 40 42 53 52 50 44 49 46 47 46 46 53 51 43 40 37 52 61 55 50 52 52 41 31 36 43 57 47 56 70 74 77 78 74 71 70
52 56 54 60 64 58 44 28 33 40 47 48 49 43 42 47 43 44 44 44 51 50 38 37 39 55 57 58 59 52 46 58 48 50 44 50 58 66 71 72 73 72 74 68 69
47 51 55 64 62 52 39 36 42 53 51 44 34 44 35 40 41 41 38 45 48 55 51 45 35 51 55 58 57 53 59 44 48 35 34 47 51 54 63 68 72 69 66 68 69
46 47 58 65 58 45 31 38 47 55 50 43 38 39 41 40 41 40 43 49 46 45 49 46 38 42 50 47 45 48 49 50 48 48 40 38 47 65 66 68 68 67 70 69 69
49 43 60 61 40 39 35 46 50 52 53 50 48 45 40 40 41 40 40 41 50 48 42 45 36 32 41 52 57 53 48 52 42 43 49 45 48 69 69 67 69 71 71 70 71
43 48 60 57 34 35 45 48 50 49 46 46 44 47 44 40 35 41 42 46 49 48 42 41 34 28 36 46 51 47 53 55 51 49 47 45 50 71 74 69 71 70 71 71 71
45 40 50 50 49 42 41 42 42 52 51 51 47 48 44 40 45 39 38 47 51 49 51 46 37 34 28 36 43 38 43 48 52 45 47 52 57 63 70 68 70 71 72 72 72
47 44 47 37 39 42 45 42 38 41 49 48 44 45 42 36 39 40 44 46 51 52 46 41 34 37 39 44 46 40 41 45 42 52 48 55 57 64 68 70 70 72 73 72 71
45 43 46 42 45 43 43 38 38 42 43 41 40 43 41 35 40 37 41 42 41 47 43 42 34 37 37 44 44 39 45 46 46 48 56 59 60 68 74 75 72 73 73 72 73
50 50 44 42 42 40 40 43 39 42 46 48 47 42 40 44 48 49 49 48 47 44 42 40 36 35 31 45 40 34 44 47 49 52 54 55 63 67 67 70 68 72 74 73 74

GFSSW_sfc_temp_030.txt.gz
Temp
60 60 60 60 60 60 60 60 60 60 60 60 60 60 60 60 59 56 53 67 67 71 72 78 75 75 74 70 73 72 54 50 57 61 67 76 74 85 88 84 86 86 85 87 90
59 60 60 60 59 59 59 59 59 60 60 60 60 60 60 60 53 51 66 70 71 72 72 72 72 75 65 67 69 63 54 56 66 70 68 74 75 78 81 79 81 84 85 89 91
59 59 59 59 59 59 59 59 59 59 60 60 60 59 59 58 50 59 73 70 71 73 74 75 75 73 63 66 66 63 60 67 70 73 75 73 75 80 77 73 78 79 84 87 85
59 59 59 59 59 58 58 58 59 59 59 59 59 59 59 53 47 66 74 74 73 73 71 70 68 63 58 60 69 59 69 70 71 75 74 72 77 75 78 77 83 83 84 84 83
58 58 58 58 58 58 58 58 58 58 58 58 59 59 54 44 47 69 72 72 74 71 67 66 64 61 55 60 65 63 67 71 72 73 74 76 73 74 76 82 86 87 85 82 79
58 58 58 58 58 58 57 57 57 57 57 58 59 60 50 38 60 66 68 69 69 65 69 66 63 65 60 58 59 63 64 67 71 71 73 72 73 76 78 84 84 83 82 80 79
57 57 57 57 57 57 57 57 56 57 57 58 60 59 49 46 62 64 62 60 64 66 64 70 70 67 62 56 64 65 58 64 67 69 69 75 68 70 80 83 81 81 79 79 80
57 57 57 57 57 57 57 56 56 57 58 59 60 57 45 61 61 58 59 60 65 67 67 70 70 62 59 62 62 56 55 53 64 68 69 69 59 74 78 76 75 79 82 84 85
57 56 56 57 57 57 56 56 57 59 60 60 52 49 41 64 59 64 63 60 66 69 68 76 65 59 59 52 47 51 48 51 57 69 68 67 62 72 76 76 73 75 78 80 82
57 56 56 56 56 56 55 55 57 59 60 62 61 47 53 57 68 70 69 67 63 63 62 60 55 52 48 45 42 46 49 53 53 63 67 64 63 71 75 76 75 77 79 79 80
56 56 55 56 56 55 52 48 53 49 54 49 53 53 57 64 68 65 70 67 64 58 47 52 45 44 50 53 54 55 53 53 57 64 63 62 63 67 72 73 70 72 75 76 75
55 55 56 55 55 55 49 47 55 55 44 58 57 57 62 64 54 60 68 56 54 46 51 47 43 53 57 56 54 52 49 49 56 63 62 61 61 67 71 72 73 74 74 75 74
55 55 55 55 54 52 51 56 61 57 41 50 58 58 60 61 54 55 62 57 51 47 48 43 49 58 55 52 51 51 49 50 50 58 62 57 55 60 67 69 71 71 73 72 74
54 55 55 54 52 50 52 60 59 56 34 44 53 60 63 60 53 65 65 58 52 46 49 47 54 53 52 50 53 45 56 56 54 51 43 57 43 57 64 66 69 71 69 73 74
54 55 54 54 45 46 57 56 57 51 20 52 54 68 65 56 58 60 69 59 49 49 49 45 49 48 49 51 56 49 58 56 55 49 48 50 42 55 59 60 65 70 73 76 74
54 54 54 50 46 51 57 55 51 31 19 44 55 53 52 54 56 59 58 59 57 53 53 50 57 54 52 56 57 59 54 53 53 46 36 48 47 50 55 60 63 68 70 73 71
54 54 52 54 46 55 53 47 29 22 46 42 43 49 48 47 50 51 49 47 40 35 37 48 49 55 58 50 54 51 41 33 30 32 36 51 46 52 58 62 65 68 70 71 69
53 52 50 54 51 53 48 37 20 38 39 47 45 47 43 45 46 47 45 41 50 45 39 37 35 49 57 50 45 45 42 32 26 28 38 52 42 50 65 71 74 73 72 68 63
51 44 47 53 55 51 40 26 29 39 41 41 40 39 39 45 43 44 42 39 46 44 34 36 38 54 55 55 51 44 41 48 39 45 36 44 50 58 68 69 71 71 66 61 60
43 42 46 57 56 47 35 34 38 48 50 46 33 38 34 38 38 39 40 45 42 47 45 41 32 48 52 56 53 48 51 37 37 30 28 40 44 49 56 60 65 65 61 60 60
42 42 52 57 53 40 27 34 43 52 51 43 39 37 38 37 39 38 39 45 46 45 47 40 34 38 46 44 42 42 40 42 41 39 36 31 40 56 60 62 65 63 64 61 62
40 37 54 56 36 29 30 43 48 49 51 47 45 42 38 39 37 39 39 41 50 47 40 43 34 29 37 48 54 47 43 41 33 34 40 39 44 64 64 64 66 64 65 63 64
38 39 53 52 29 29 38 43 47 42 46 44 43 45 43 38 33 40 42 50 49 45 41 40 32 25 31 40 46 43 46 44 42 41 40 38 42 64 65 65 66 65 65 65 64
38 34 41 40 40 33 34 37 39 46 45 47 43 45 40 37 40 36 39 47 50 46 51 44 35 31 23 34 41 37 42 45 40 34 42 44 49 60 63 62 67 63 65 65 65
39 36 39 31 35 36 38 38 37 37 45 45 40 41 38 34 36 35 41 43 47 51 45 39 32 36 36 39 40 41 42 43 40 41 35 45 47 58 63 65 66 65 66 65 65
36 36 39 37 38 36 37 36 36 39 40 39 37 42 41 37 37 34 37 38 37 42 38 38 32 35 34 40 42 38 44 44 45 45 45 45 47 61 64 67 64 66 67 66 66
40 42 41 41 37 33 32 38 39 42 43 45 42 41 39 42 46 46 45 45 43 39 38 36 34 34 29 38 40 32 41 44 47 49 48 42 52 59 58 62 61 65 69 67 68

GFSSW_sfc_temp_033.txt.gz
Temp
59 59 59 59 59 59 59 59 59 59 60 60 60 60 60 60 59 54 51 65 65 70 71 75 74 72 70 66 69 66 51 49 55 59 63 73 72 80 83 80 80 81 79 83 84
59 59 60 59 59 59 59 59 59 59 59 60 60 59 59 59 52 50 64 69 69 71 69 69 70 72 61 62 65 60 51 54 63 68 64 70 70 74 76 76 75 77 84 88 85
59 59 59 59 59 58 58 58 58 59 59 59 59 59 59 58 48 57 72 71 71 71 69 70 73 71 59 61 61 59 56 66 69 70 71 71 69 76 74 71 76 76 79 83 84
58 59 59 58 58 58 58 58 58 59 59 58 58 58 59 51 45 63 73 70 71 74 66 67 65 61 56 57 62 56 63 67 69 71 70 70 74 71 72 74 80 82 82 80 80
58 58 58 58 58 58 58 58 58 58 58 58 58 59 54 42 45 65 69 67 69 69 63 62 61 61 53 56 62 59 62 65 68 69 70 72 69 70 72 78 81 82 82 79 78
57 58 57 57 57 57 57 57 57 57 57 58 58 59 52 39 59 62 62 63 63 61 62 62 61 63 59 56 59 59 62 64 66 67 66 67 69 71 74 79 80 80 79 78 76
57 57 57 57 57 57 57 56 56 56 57 58 59 58 50 45 60 61 59 55 58 60 58 63 67 62 59 53 60 59 54 61 62 62 62 69 64 65 74 78 77 78 79 80 75
57 56 56 56 57 57 57 56 56 57 59 60 59 56 44 60 59 56 58 56 59 59 61 64 65 59 56 58 58 53 51 49 61 64 65 67 56 68 74 74 74 76 75 77 79
57 56 56 56 56 56 56 56 57 60 60 60 52 48 41 62 58 62 60 59 61 63 62 71 62 56 55 49 45 48 45 47 55 65 64 63 58 68 74 73 71 73 75 75 75
56 55 55 56 56 56 55 55 57 58 59 60 58 44 52 56 64 67 68 66 59 59 58 57 53 47 45 44 39 43 44 48 48 58 62 59 59 67 70 69 68 69 72 74 76
56 55 55 55 55 55 51 51 50 48 49 47 52 51 55 63 67 62 66 62 60 55 44 51 43 41 48 51 52 49 48 46 53 60 59 58 59 63 68 69 69 72 74 74 74
55 55 55 55 55 54 48 47 51 52 42 55 55 55 60 61 53 59 65 53 51 43 48 44 41 49 53 52 50 49 45 44 52 58 55 55 55 61 65 66 69 69 69 69 72
54 54 55 55 54 51 47 53 57 52 38 48 55 55 58 59 53 53 59 54 48 43 43 39 46 55 52 49 48 46 44 45 46 53 57 53 51 56 62 64 67 67 69 68 68
54 54 54 54 51 45 48 58 54 52 31 44 51 57 61 60 52 64 62 55 48 43 45 42 50 50 47 46 49 41 51 52 50 46 39 52 39 53 59 62 65 66 67 68 70
54 54 54 53 44 44 55 52 54 49 18 49 51 65 60 54 56 58 63 55 45 45 45 41 45 44 45 47 52 45 53 50 50 45 40 44 38 51 54 56 61 66 69 71 74
54 54 54 49 44 49 51 51 49 30 19 42 51 47 47 52 53 57 57 58 54 44 47 47 54 51 48 53 53 54 49 47 47 41 30 43 41 45 51 57 60 62 64 66 66
54 53 51 52 47 50 49 45 29 21 44 39 40 44 42 45 47 50 48 46 37 32 34 44 45 51 54 46 50 47 37 28 26 27 31 46 42 48 52 57 59 60 63 65 67
53 51 49 52 48 49 46 36 19 36 37 46 44 42 40 44 44 45 44 39 46 43 36 33 32 45 54 48 42 41 39 29 25 27 33 48 38 47 58 65 68 68 66 65 64
51 43 44 50 51 49 40 25 29 37 44 42 41 36 36 42 42 40 39 39 42 43 35 34 37 53 54 54 49 41 36 46 35 37 32 40 46 55 62 63 63 64 64 62 62
41 41 45 53 52 45 35 33 36 46 48 45 33 37 31 36 35 35 36 43 42 47 44 39 32 46 51 53 53 45 48 35 32 27 26 35 39 44 52 61 59 60 61 60 56
41 41 51 53 50 39 27 32 41 50 49 42 39 36 37 35 36 35 39 45 47 45 45 38 34 37 44 41 38 41 37 39 39 35 28 29 35 50 54 57 58 60 65 58 56
37 37 52 52 36 25 28 40 46 45 47 45 42 40 37 38 35 36 38 42 49 45 37 40 32 28 35 45 50 45 42 40 31 32 37 34 38 60 55 56 60 63 65 56 57
38 36 49 49 26 26 35 40 44 42 41 41 40 42 41 36 31 38 41 48 49 43 38 37 30 25 29 36 43 38 44 42 38 36 33 31 38 59 57 59 61 57 57 58 58
40 33 38 38 36 31 31 35 39 47 43 45 41 43 38 35 38 34 38 45 47 46 51 43 34 30 25 31 39 34 41 41 37 29 35 40 43 53 56 53 58 60 58 57 59
37 34 36 29 32 34 33 36 36 36 44 44 38 40 37 33 37 34 38 41 44 47 42 38 30 33 35 38 38 36 37 39 38 39 33 39 40 52 52 57 60 61 59 59 59
34 34 36 34 36 37 35 34 36 39 39 38 36 38 38 35 37 34 38 37 37 40 37 36 29 35 33 38 38 34 38 40 41 43 42 43 42 57 58 60 61 61 61 60 61
38 38 36 35 33 35 33 39 38 40 40 43 42 39 36 39 44 43 43 42 42 39 34 33 33 29 27 39 35 31 38 41 43 45 45 39 47 54 54 56 55 57 63 63 63

GFSSW_sfc_temp_036.txt.gz
Temp
59 60 60 60 59 59 59 59 59 59 59 60 60 60 60 60 59 53 51 64 63 69 70 70 71 70 67 64 67 63 49 46 53 58 62 69 62 73 79 74 75 79 78 81 80
59 59 59 59 59 59 59 59 59 59 59 59 59 59 59 59 50 48 62 68 69 70 63 64 65 69 60 62 63 59 48 53 62 67 64 69 65 69 72 70 71 74 80 83 81
58 59 59 59 59 58 58 59 59 59 59 59 59 59 59 57 45 54 71 70 70 70 66 66 66 67 57 58 59 58 55 64 65 69 69 70 68 71 68 66 71 71 75 78 80
58 58 58 58 58 58 58 58 58 59 59 59 58 58 60 50 43 60 71 68 70 69 65 63 61 56 53 54 61 52 61 66 67 69 68 67 70 69 70 69 76 77 76 75 76
58 58 58 58 58 58 58 58 58 58 58 58 58 58 51 42 45 60 67 64 64 64 61 58 58 58 50 53 59 58 60 63 68 69 69 70 67 67 69 75 78 80 80 77 74
57 57 57 57 57 57 57 57 57 57 57 58 58 58 47 36 58 60 61 61 59 55 58 57 56 60 59 54 59 57 60 62 63 64 66 65 66 65 67 74 74 76 76 77 75
57 57 56 56 57 57 57 56 56 57 58 59 59 57 46 44 59 60 56 53 56 58 55 60 62 57 57 52 58 57 53 56 58 60 62 67 61 63 72 74 72 74 76 77 78
56 56 56 56 56 57 57 56 56 58 60 60 60 51 40 58 57 55 56 56 58 56 56 60 60 54 54 58 56 51 50 48 60 59 62 65 55 68 71 72 71 73 74 75 76
56 56 56 56 56 56 56 55 57 60 60 60 50 47 41 61 56 61 59 58 61 60 56 65 58 53 52 47 42 45 46 44 51 62 62 61 57 66 69 69 69 69 68 70 72
56 56 55 56 56 56 55 56 58 58 58 59 57 43 51 54 62 64 62 62 58 57 54 53 50 45 42 42 37 40 41 46 46 54 59 55 57 64 66 66 67 68 68 67 68
56 55 55 55 56 55 51 51 47 45 48 44 49 49 53 60 64 60 63 59 58 53 42 47 40 39 45 48 50 47 44 42 48 55 54 54 56 61 64 64 65 67 69 70 71
55 55 55 55 55 54 48 47 50 50 40 53 51 52 57 58 51 58 61 50 48 42 44 41 36 46 51 50 48 46 41 41 48 54 51 50 49 55 58 60 63 65 66 65 65
54 54 54 54 54 49 45 50 53 50 37 46 53 52 55 55 52 52 57 51 46 41 41 37 42 51 49 47 45 43 41 41 43 51 53 49 48 53 59 59 63 64 66 66 67
54 54 54 54 50 44 47 54 51 50 30 41 50 54 56 55 49 64 60 53 46 41 43 40 47 46 44 43 47 39 48 48 47 42 36 48 35 49 56 58 60 61 63 65 63
54 54 54 53 43 45 52 49 49 48 18 47 49 60 56 48 51 54 61 53 44 44 43 41 43 41 41 44 49 42 51 48 47 41 38 42 35 48 50 51 53 60 65 67 69
54 54 54 47 43 47 50 48 48 31 19 39 48 45 44 47 50 54 54 56 52 44 44 43 51 48 46 50 50 52 46 44 42 37 29 39 39 43 48 53 57 58 61 62 62
53 53 51 50 47 47 47 45 29 21 42 37 39 43 42 40 44 47 45 42 37 32 32 42 42 49 51 43 46 44 35 26 24 24 28 43 38 45 49 54 55 57 59 61 62
52 50 49 50 45 48 45 36 19 35 36 45 43 42 36 41 41 43 40 35 43 40 36 31 30 43 50 45 39 38 37 26 24 24 28 43 35 43 55 61 61 62 60 60 61
50 43 43 47 49 46 40 25 29 35 43 40 41 34 34 40 39 38 36 36 42 43 32 31 33 45 49 49 48 39 33 43 33 34 29 34 42 50 57 60 59 59 60 60 60
40 41 45 50 49 45 34 33 34 44 46 43 32 36 29 34 33 33 34 42 42 47 45 39 30 45 48 49 49 43 46 33 29 25 25 32 35 40 49 52 56 58 57 59 59
39 42 49 50 48 38 26 31 39 47 46 40 36 35 35 34 34 32 36 43 45 44 43 40 33 38 44 41 39 41 35 36 34 31 27 27 33 46 49 52 53 54 57 57 57
37 37 49 49 34 24 26 37 44 43 45 42 41 38 35 36 33 34 34 41 49 44 37 39 33 28 34 43 45 42 39 38 30 30 34 30 33 52 51 51 53 57 59 55 54
39 38 47 47 24 24 33 38 41 41 41 40 38 40 39 36 31 35 38 46 46 43 37 38 31 25 30 36 41 36 39 39 36 33 29 28 34 53 56 55 56 57 56 55 58
40 32 37 36 34 30 31 36 35 44 42 43 40 42 38 33 36 34 37 43 45 44 50 42 34 29 23 30 35 32 36 38 36 28 33 36 39 48 53 51 55 59 57 54 57
35 32 36 28 29 30 35 37 34 37 43 41 37 39 36 33 35 35 39 39 44 46 40 35 31 32 33 36 37 35 35 36 35 36 31 36 37 45 49 52 56 58 58 56 56
32 32 34 31 33 31 34 35 38 39 38 38 36 40 38 34 35 32 36 37 35 40 38 39 31 31 32 37 37 33 36 37 37 38 38 40 39 51 53 56 55 59 57 56 57
40 36 36 35 29 27 29 34 35 39 41 42 40 37 35 39 44 44 43 41 41 37 36 35 33 27 25 36 34 27 35 37 38 42 41 35 42 52 51 54 54 56 56 59 60

GFSSW_sfc_temp_042.txt.gz
Temp
60 60 60 60 59 59 59 59 60 60 60 60 60 60 60 60 60 73 70 70 71 69 70 81 82 81 83 82 85 84 72 71 73 75 75 84 85 94 95 92 93 95 95 96 97
59 59 59 59 59 59 59 59 59 59 60 60 60 59 59 59 67 69 68 69 69 70 77 76 78 80 77 77 81 76 71 73 83 83 76 81 86 90 87 89 90 92 96 97 99
59 59 59 59 59 59 59 59 59 59 59 60 59 59 59 62 66 69 69 68 69 72 79 77 78 80 74 79 79 77 71 81 82 83 81 79 84 91 86 84 91 91 93 96 95
58 59 59 58 58 58 58 58 59 59 59 59 59 59 59 67 60 73 69 69 68 76 77 73 72 72 72 71 79 71 78 79 81 84 78 77 82 84 88 89 96 93 93 93 93
58 58 58 58 58 58 58 58 58 58 58 59 59 59 65 66 67 77 69 73 76 77 73 72 70 71 69 75 77 73 76 80 81 80 81 81 78 80 84 91 95 96 94 92 93
57 57 57 57 57 57 57 57 57 57 58 59 59 58 65 62 77 77 75 75 75 76 72 73 72 75 71 72 73 77 77 78 80 81 79 76 78 81 83 89 88 89 90 93 93
57 57 57 57 57 57 57 57 57 57 59 60 59 65 63 66 77 80 78 75 75 73 70 75 77 71 72 68 76 75 69 73 76 78 77 78 71 74 84 88 85 86 88 90 92
57 57 56 57 57 57 57 57 57 58 60 60 61 66 64 77 80 78 79 77 76 75 72 75 76 72 71 74 70 66 68 62 74 76 77 74 64 78 86 85 84 85 88 89 91
57 56 56 56 56 57 56 56 58 61 61 61 65 65 65 72 74 79 79 72 75 75 73 74 72 67 70 62 61 65 58 63 68 79 76 71 66 77 83 84 84 86 88 89 91
57 56 56 56 56 56 55 57 60 61 66 68 69 61 70 66 73 75 79 75 69 70 68 67 67 62 64 61 51 57 60 63 63 73 75 71 69 76 81 84 82 84 86 87 89
56 55 55 55 56 55 60 70 68 65 68 63 62 61 66 73 77 73 76 72 70 66 58 66 58 56 60 63 63 62 61 61 67 72 70 69 70 74 79 80 81 82 83 84 86
56 55 55 55 55 55 63 66 62 63 56 66 65 64 68 69 61 70 75 64 63 56 63 58 53 61 64 61 59 59 55 57 64 67 67 67 67 73 77 79 81 81 82 83 85
55 55 55 55 55 62 68 65 71 68 57 59 65 64 66 70 62 63 70 66 59 56 58 53 57 63 58 56 54 55 53 55 57 64 67 64 61 66 75 78 79 80 81 82 82
54 55 55 54 56 70 67 69 72 68 53 53 59 64 67 68 59 71 71 64 59 54 57 55 61 57 56 54 56 49 60 58 57 55 50 64 49 64 70 72 75 78 80 82 83
54 54 54 54 63 69 66 71 71 64 39 55 59 72 68 61 61 63 71 65 55 55 56 52 56 55 52 55 59 53 60 57 57 54 55 56 53 61 70 67 72 77 79 81 83
54 54 54 58 65 68 71 69 65 48 35 50 58 57 57 61 60 63 63 68 65 57 58 56 64 59 57 59 60 61 57 57 57 54 45 54 54 57 63 68 73 78 81 82 84
54 53 57 68 66 72 71 64 48 40 54 49 50 56 55 53 55 56 55 55 50 43 46 53 54 57 55 51 59 57 50 40 39 41 40 56 53 57 68 72 74 76 77 82 84
53 51 55 69 72 68 67 56 36 47 48 55 54 54 49 52 53 53 52 50 54 51 46 38 38 48 46 46 50 51 49 41 32 39 45 55 48 57 70 75 77 79 79 81 83
51 67 69 69 70 69 61 47 48 48 50 48 51 47 48 51 51 51 51 49 52 54 40 39 41 55 52 55 55 49 43 56 44 45 43 54 57 64 70 71 73 76 77 77 79
61 66 67 68 68 64 56 43 49 53 52 51 42 47 43 48 48 49 48 52 51 54 56 48 35 51 48 53 57 55 57 43 47 31 34 50 52 54 63 66 72 72 72 76 79
61 61 65 68 66 62 46 50 50 55 54 48 46 44 46 45 48 47 46 53 54 54 57 52 44 45 54 46 45 49 49 45 44 45 37 44 52 67 67 68 67 70 74 76 78
59 56 67 68 53 51 49 49 47 51 54 51 51 49 46 47 43 46 45 49 58 55 48 52 45 40 45 55 58 51 45 38 36 37 48 44 50 69 68 70 69 70 73 77 79
51 56 68 64 43 46 52 49 49 49 50 48 46 50 51 45 37 46 48 55 56 52 47 48 43 36 41 47 53 49 49 52 49 49 38 41 51 69 69 70 71 70 72 75 78
52 49 61 62 55 48 46 46 46 52 50 50 48 50 48 46 50 42 45 51 52 52 51 47 43 37 35 43 49 45 48 51 49 42 45 47 52 62 66 68 70 70 71 75 78
55 50 50 49 50 48 48 46 44 44 50 52 47 46 43 37 44 43 45 47 51 52 49 40 37 44 46 49 50 48 48 50 48 50 45 50 52 60 65 66 68 69 70 74 77
48 46 50 49 48 46 44 46 44 46 47 46 43 47 45 39 41 37 43 42 37 49 46 45 37 44 42 48 50 46 50 50 51 51 51 52 52 63 66 68 68 68 71 73 75
48 53 42 44 47 44 43 44 44 46 48 51 47 44 43 46 51 52 51 49 46 39 38 37 38 39 37 47 47 40 49 52 53 56 55 49 57 64 63 64 66 68 71 72 74

GFSSW_sfc_temp_045.txt.gz
Temp
60 60 60 60 60 59 59 59 60 60 60 60 61 61 60 60 60 77 74 71 73 69 70 82 84 86 86 84 89 90 74 71 76 78 81 90 89 95 100 96 98 99 96 99 104
59 60 60 59 59 59 59 59 59 60 60 60 60 60 60 60 69 77 70 70 70 70 79 81 80 83 81 81 84 81 74 74 83 85 83 88 89 92 93 93 93 96 101 101 103
59 59 59 59 59 59 59 59 59 60 60 60 60 60 60 63 72 75 69 69 69 71 83 83 82 82 78 82 80 78 73 82 85 87 88 85 86 92 90 88 94 93 97 100 100
59 59 59 59 59 59 59 59 59 60 60 59 59 59 60 69 64 78 70 70 70 78 82 81 80 75 74 75 83 75 80 81 84 87 88 83 86 84 89 92 99 101 101 99 97
58 58 58 58 58 58 58 58 59 59 59 59 60 60 66 72 72 81 71 74 82 82 79 77 75 76 73 77 79 78 80 83 84 84 86 88 83 81 85 93 99 100 100 97 97
58 58 58 58 58 58 58 57 57 57 58 59 60 59 68 67 82 84 83 82 82 81 79 78 77 80 76 76 77 81 82 82 84 84 84 82 82 84 86 92 93 95 96 98 98
57 57 57 57 57 57 57 57 57 57 58 60 61 69 74 71 84 86 85 82 82 79 74 80 80 75 77 72 80 79 73 77 80 83 81 84 76 77 86 89 89 90 92 93 95
57 57 57 57 57 57 57 57 56 58 60 61 61 72 70 83 87 85 86 82 84 83 79 80 81 75 73 77 74 70 72 66 76 78 81 78 68 81 87 86 86 89 91 93 94
57 56 56 56 57 57 56 56 58 61 61 62 65 72 69 76 77 83 85 77 80 82 81 80 77 71 72 66 63 67 59 65 70 81 78 74 70 81 87 86 85 87 90 92 93
57 56 56 56 56 56 56 55 62 61 65 73 76 67 75 70 77 80 84 81 75 75 74 73 72 66 68 65 54 60 63 66 66 75 79 75 74 80 84 84 84 85 88 90 92
57 56 56 56 56 56 60 74 68 66 74 70 70 68 72 77 81 78 81 76 76 71 63 70 63 60 64 68 68 66 63 62 69 78 75 73 74 79 83 83 82 85 88 88 90
56 56 56 56 56 55 63 72 68 71 60 74 72 71 74 75 66 74 79 69 67 61 66 64 58 66 68 66 63 62 59 60 66 72 72 70 70 77 81 83 84 84 85 87 89
55 56 55 56 56 60 74 71 78 76 62 67 71 70 72 74 67 68 73 70 64 60 62 57 62 67 64 61 58 59 57 57 58 66 69 67 64 68 77 82 83 85 86 88 88
55 55 55 55 55 79 73 76 80 75 56 59 64 69 72 73 65 74 76 68 64 59 61 60 66 62 60 58 61 53 64 61 59 57 51 66 52 65 72 74 78 81 84 86 87
55 55 54 52 71 75 73 79 78 70 42 61 65 77 73 66 67 67 75 69 58 59 60 56 59 59 57 59 63 57 64 61 60 56 55 57 54 62 72 70 74 79 83 84 87
55 54 54 61 73 76 79 77 71 52 40 57 64 62 64 67 65 69 68 73 70 61 63 61 64 63 60 57 62 64 59 59 59 56 45 54 54 57 64 69 75 81 83 85 88
55 54 57 75 72 79 78 70 52 45 61 56 57 62 61 60 60 61 60 60 57 49 50 57 59 54 59 54 60 58 50 41 39 43 42 57 53 58 68 74 77 78 82 86 88
53 52 60 77 80 77 72 60 39 54 55 62 59 60 57 58 59 58 58 56 61 57 52 43 41 55 59 54 51 48 52 42 31 37 43 54 48 57 72 77 80 81 81 84 85
52 69 72 76 77 75 64 50 53 55 57 54 57 54 55 58 58 58 57 55 58 59 46 43 44 59 62 61 58 53 49 56 44 48 40 45 53 64 71 73 76 78 80 81 83
61 68 73 74 75 69 59 49 56 59 59 57 48 53 49 54 54 56 54 58 55 61 61 53 41 55 59 60 61 56 59 39 48 34 33 45 50 52 63 67 74 76 77 79 81
63 63 70 77 73 63 50 56 58 62 60 53 52 50 52 51 54 52 53 58 59 58 60 57 48 48 56 53 50 51 52 47 47 44 37 35 45 61 67 69 71 76 77 78 81
63 58 72 74 57 58 55 55 52 58 60 56 57 53 50 51 48 50 50 54 61 59 50 55 46 42 48 61 62 59 54 51 34 35 48 45 43 63 59 77 75 75 75 79 81
59 62 73 70 48 52 59 58 58 55 57 54 51 54 55 49 42 50 52 59 60 56 47 49 45 36 44 52 49 45 52 54 51 47 40 34 38 58 66 72 74 73 74 77 80
60 55 65 68 61 51 51 53 52 58 56 57 53 55 52 50 53 46 50 55 57 55 52 50 45 39 35 43 42 39 46 52 52 43 46 46 48 46 48 58 73 74 74 75 79
62 58 56 53 54 53 54 53 50 51 57 58 52 50 47 42 48 46 51 52 54 55 54 45 36 45 49 52 51 51 52 54 51 53 47 50 50 55 53 58 65 73 74 74 78
55 54 58 54 56 53 50 51 50 52 53 50 50 52 48 44 46 43 48 46 43 53 50 48 37 45 44 51 53 50 55 55 55 56 55 55 54 64 66 70 70 71 73 74 76
53 53 48 48 54 52 51 48 47 47 50 55 53 50 50 54 58 58 56 56 52 44 43 39 39 40 36 50 51 45 54 56 56 59 58 52 60 67 66 68 69 71 73 73 75

GFSSW_sfc_temp_048.txt.gz
Temp
60 60 60 60 60 60 60 60 60 60 60 61 61 61 61 61 60 71 66 71 73 70 70 79 81 82 84 79 84 86 70 66 70 72 77 88 87 94 97 93 96 98 98 100 103
60 60 60 60 59 59 59 59 60 60 60 61 61 60 60 60 63 69 70 70 70 70 76 79 78 81 76 78 78 76 69 70 79 81 80 85 88 90 90 90 91 94 100 102 102
59 59 59 59 59 59 59 59 59 60 60 60 60 60 60 62 65 71 71 71 70 71 77 80 82 78 74 79 77 75 69 77 80 85 86 84 85 91 86 84 91 91 96 99 100
59 59 59 59 59 59 59 59 59 60 60 60 60 60 61 64 61 75 72 72 71 76 79 80 78 73 71 70 79 70 77 79 81 85 84 83 88 85 86 87 94 96 99 99 97
58 58 58 58 58 58 58 58 58 59 59 59 59 60 64 67 73 80 73 74 78 81 79 78 75 74 69 73 75 73 77 80 82 82 82 84 82 83 84 90 93 95 96 97 96
57 58 58 57 57 58 57 57 57 57 58 59 60 61 64 64 84 86 85 85 84 82 79 79 76 78 73 73 72 77 78 79 82 82 83 79 80 83 86 91 89 90 91 94 95
57 57 57 57 57 57 57 57 57 57 58 60 61 67 67 71 86 88 87 84 84 81 75 80 80 73 74 69 77 75 69 75 77 80 79 82 74 76 86 89 87 88 90 91 93
57 57 57 57 57 57 57 57 57 58 60 61 62 69 66 85 88 86 87 84 87 86 82 82 81 74 70 74 71 67 68 61 74 76 79 77 65 80 85 84 83 86 88 90 91
57 57 56 57 57 57 57 56 57 60 63 63 65 68 68 78 78 84 85 79 81 82 83 84 78 70 71 64 61 64 56 61 66 78 77 74 68 79 84 82 80 83 86 88 90
57 57 56 56 56 56 56 55 62 61 66 74 74 67 74 73 79 81 86 83 76 76 74 74 71 65 66 62 51 58 61 64 63 72 74 72 72 78 81 81 80 82 85 86 87
57 56 56 56 56 56 58 73 66 62 67 68 71 71 74 79 82 79 83 77 77 72 62 70 62 58 63 67 67 64 61 60 66 73 69 68 71 77 82 81 79 81 82 84 86
56 56 56 56 56 56 59 70 71 73 61 74 75 74 77 78 68 75 81 69 67 60 66 63 57 66 69 68 64 61 58 57 63 68 66 65 66 73 79 80 82 80 80 82 85
55 55 56 55 56 59 71 73 80 79 61 69 73 72 74 76 68 70 75 70 64 60 62 57 61 68 64 61 59 59 56 56 56 63 66 62 59 66 74 78 80 82 84 84 83
55 55 55 54 55 77 74 80 82 78 53 60 65 71 74 74 66 77 77 70 64 58 61 59 65 63 61 59 60 52 63 61 59 56 48 63 47 60 67 70 75 77 79 83 85
55 55 55 53 65 73 76 81 80 71 38 64 67 79 75 68 69 71 78 70 59 59 60 56 59 59 57 58 61 55 63 59 59 55 53 54 50 56 65 64 71 76 79 81 85
55 55 54 64 68 78 82 79 73 49 39 59 67 65 65 69 69 71 70 74 71 62 62 61 69 64 59 60 61 62 57 57 56 54 43 51 51 52 59 64 69 76 80 82 84
55 55 54 69 70 82 80 71 50 44 63 58 59 64 62 61 62 64 61 60 57 51 51 59 59 62 59 52 56 59 50 36 39 40 40 53 50 55 63 69 71 73 78 83 86
53 52 61 72 79 78 72 58 41 56 58 64 62 61 57 62 61 61 60 57 64 60 53 45 42 55 59 53 49 53 51 36 27 34 41 54 44 54 64 69 74 77 79 82 83
53 70 67 72 76 75 62 47 50 55 61 57 58 56 57 61 60 60 59 57 60 60 48 46 46 61 62 62 57 52 46 51 36 41 40 47 53 62 66 67 70 73 76 79 80
58 64 70 76 77 68 56 47 56 64 62 60 49 56 50 55 55 56 55 61 58 62 62 53 42 55 59 62 58 54 59 44 45 30 29 42 45 49 58 58 67 71 74 77 80
61 64 71 78 74 61 48 55 60 65 63 55 53 51 53 52 54 52 53 59 60 59 60 56 48 46 53 51 51 52 50 50 39 40 34 34 42 58 53 52 50 57 75 78 79
61 58 74 75 56 57 52 59 56 60 64 60 59 55 52 53 51 50 50 55 62 61 51 55 45 39 46 57 59 52 49 45 37 37 44 41 43 59 50 51 53 50 66 77 78
58 64 74 71 50 51 58 58 61 58 58 57 55 56 56 51 45 51 52 60 61 55 49 48 44 34 41 51 47 43 48 51 51 46 39 35 40 56 48 47 52 48 54 73 76
58 56 65 68 66 56 53 53 54 62 59 58 55 57 52 49 54 49 51 58 60 55 56 52 44 39 33 40 44 37 45 50 49 41 44 44 45 52 46 48 49 51 54 72 75
62 57 58 52 54 54 56 55 52 52 60 60 55 54 51 43 48 47 52 55 57 57 54 49 36 43 46 49 50 50 49 52 50 49 44 49 50 54 52 51 51 55 61 70 74
54 52 55 52 57 54 53 53 52 53 51 49 48 53 54 47 48 46 52 51 48 55 50 49 38 44 41 49 50 48 53 54 55 55 54 55 53 62 64 61 61 64 69 71 73
60 60 51 48 55 54 53 53 52 53 53 55 52 49 47 52 56 59 59 57 55 50 46 39 39 38 34 46 48 41 50 51 52 56 51 46 52 59 60 62 64 68 70 71 74